Weather History for Rapid City, SD

Change the Weather History Date:

Tuesday, March 5, 2013

  Actual Average Record
Temperature  
Mean Temperature 19 °F 32 °F  
Max Temperature 32 °F 44 °F 76 °F (2000)
Min Temperature 5 °F 20 °F -15 °F (1943)
Degree Days  
Heating Degree Days 46 33  
Month to date heating degree days 154 168  
Since 1 July heating degree days 5143 5378  
Cooling Degree Days 0 0  
Month to date cooling degree days 0 0  
Year to date cooling degree days 0 0  
Moisture  
Dew Point 8 °F    
Average Humidity 65    
Maximum Humidity 84    
Minimum Humidity 46    
Precipitation  
Precipitation 0.00 in 0.02 in 0.63 in (1999)
Month to date precipitation T 0.12  
Year to date precipitation 0.61 0.86  
Snow  
Snow 0.00 in 0.30 in - ()
Month to date snowfall T 1.4  
Since 1 July snowfall 20.4 24.8  
Snow Depth 0.00 in    
Sea Level Pressure  
Sea Level Pressure 30.41 in    
Wind  
Wind Speed 9 mph (NNE)    
Max Wind Speed 29 mph    
Max Gust Speed 35 mph    
Visibility 10 miles    
Events Snow    
T = Trace of Precipitation, MM = Missing Value Source: NWS Daily Summary

Daily Weather History Graph

Daily Weather History Graph

Search for Another Location

Airport:

Trip Planner

Search our weather history database for the weather conditions in past years. The results will help you decide how hot, cold, wet, or windy it might be!

Date:

Astronomy

Mar. 05, 2013 Rise Set
Actual Time 6:21 AM MST 5:46 PM MST
Civil Twilight 5:52 AM MST 6:15 PM MST
Nautical Twilight 5:19 AM MST 6:48 PM MST
Astronomical Twilight 4:45 AM MST 7:22 PM MST
Moon 1:45 AM MST (3/5) 11:18 AM MST (3/5)
Length of Visible Light 12h 22m
Length of Day
11h 24m
Last Quarter, 40% of the Moon is Illuminated
Mar 5
Last Quarter
Mar 11
New
Mar 19
First Quarter
Mar 27
Full
Apr 2
Last Quarter

Hourly Weather History & Observations

Time (MST) Temp. Windchill Dew Point Humidity Pressure Visibility Wind Dir Wind Speed Gust Speed Precip Events Conditions
12:52 AM 15.1 °F -2.0 °F 10.0 °F 80% 30.33 in 9.0 mi NNW 19.6 mph 26.5 mph 0.00 in Snow Light Snow
1:52 AM 14.0 °F -2.0 °F 9.0 °F 80% 30.38 in 9.0 mi NNW 16.1 mph - 0.00 in Snow Light Snow
2:52 AM 12.9 °F -2.2 °F 8.1 °F 81% 30.39 in 9.0 mi North 13.8 mph - 0.00 in Snow Light Snow
3:52 AM 14.0 °F 2.0 °F 7.0 °F 74% 30.41 in 9.0 mi NNW 9.2 mph - 0.00 in Snow Light Snow
4:52 AM 9.0 °F 2.4 °F 3.9 °F 80% 30.45 in 9.0 mi WNW 3.5 mph - 0.00 in Snow Light Snow
5:52 AM 8.1 °F - 3.0 °F 80% 30.48 in 9.0 mi Calm Calm - 0.00 in Snow Light Snow
6:52 AM 7.0 °F -4.5 °F 1.9 °F 80% 30.48 in 9.0 mi NW 6.9 mph - 0.00 in Snow Light Snow
7:01 AM 8.6 °F -1.3 °F 3.2 °F 79% 30.30 in 9.0 mi NNE 5.8 mph - 0.00 in   Clear
7:52 AM 12.9 °F 2.6 °F 7.0 °F 77% 30.49 in 10.0 mi North 6.9 mph - 0.00 in   Clear
8:52 AM 18.0 °F 6.9 °F 10.0 °F 71% 30.48 in 10.0 mi North 9.2 mph - N/A   Clear
9:52 AM 21.9 °F 9.8 °F 10.9 °F 63% 30.47 in 10.0 mi NNE 12.7 mph - 0.00 in   Clear
10:52 AM 26.1 °F 13.1 °F 12.0 °F 55% 30.45 in 10.0 mi North 17.3 mph 21.9 mph N/A   Clear
11:52 AM 27.0 °F 16.7 °F 12.0 °F 53% 30.46 in 10.0 mi North 11.5 mph 18.4 mph N/A   Clear
12:52 PM 30.0 °F 21.7 °F 12.0 °F 47% 30.42 in 10.0 mi North 9.2 mph - N/A   Clear
1:52 PM 30.0 °F 22.4 °F 12.0 °F 47% 30.41 in 10.0 mi North 8.1 mph - N/A   Clear
2:52 PM 30.9 °F 25.2 °F 12.0 °F 46% 30.40 in 10.0 mi ENE 5.8 mph - N/A   Clear
3:52 PM 30.9 °F 26.2 °F 12.0 °F 46% 30.38 in 10.0 mi North 4.6 mph - N/A   Clear
4:52 PM 28.9 °F 21.9 °F 10.9 °F 47% 30.40 in 10.0 mi East 6.9 mph - N/A   Clear
5:52 PM 21.9 °F 12.5 °F 9.0 °F 58% 30.40 in 10.0 mi East 8.1 mph - N/A   Clear
6:52 PM 21.9 °F 14.5 °F 9.0 °F 58% 30.41 in 10.0 mi East 5.8 mph - N/A   Clear
7:52 PM 18.0 °F 12.7 °F 7.0 °F 62% 30.40 in 10.0 mi East 3.5 mph - N/A   Clear
8:52 PM 16.0 °F 7.4 °F 8.1 °F 71% 30.40 in 10.0 mi SE 5.8 mph - N/A   Clear
9:52 PM 15.1 °F 7.7 °F 7.0 °F 70% 30.38 in 10.0 mi SE 4.6 mph - N/A   Clear
10:52 PM 14.0 °F 3.9 °F 7.0 °F 74% 30.36 in 10.0 mi SE 6.9 mph - N/A   Clear
11:52 PM 12.0 °F 0.5 °F 7.0 °F 80% 30.34 in 10.0 mi SE 8.1 mph - N/A   Clear